Погода в Моховом

Россия / Орловская область     52°32′19″N   35°51′11″E
В апреле 2022 года жителям России запретили посещать сайт meteo.paraplan.net по решению Генеральной прокуратуры. Аудитория сайта уменьшилась в 10 раз. Владельцы сайта не видят смысла в поддержке погодного сервера в таких условиях. Сайт будет закрыт в октябре.
темп.,
°C
ветер,
м/с
пор.,
м/с
влажн.,
%
обл.,
%
осадки,
мм/ч
давл.,
гПа
погр.,
м
4 октября, вт
вт400:00+9ю10168698 0.1 10031098
03:00+9ю101782100 0.1 10031044
06:00+7юз61092100 0.8 1004900
09:00+7ююз71286100 2.6 10061045
12:00+9ююз81379100 0.3 10071569
15:00+7ююз71388100 1.1 10091314
18:00+7юз61189100 0.6 10101203
21:00+7юз71191100 1.3 10111169
5 октября, ср
ср500:00+8юз71192100 0.8 1011970
03:00+7зюз4894100 1.6 1012804
06:00+6зюз51190100 0.8 1014569
09:00+7зюз6990100 0.9 1015923
12:00+9зсз8107072 0.5 10161271
15:00+8зсз697990 0.8 1018882
18:00+8з51183100 0.2 1019709
21:00+7з5109193 0.3 1020342
6 октября, чт
чт600:00+8з5109174 0.2 1021476
03:00+8зюз4896100 0.4 1021402
06:00+8зюз4895100 0.3 1021350
09:00+9зюз4791100 0.3 1021291
12:00+14зюз467652 0.0 1021819
15:00+14з467291 0.0 1021705
18:00+11юз478521 0.0 1022274
21:00+9юз49935 0.0 1022176
7 октября, пт
пт700:00+8юз39940 0.0 1022176
03:00+8зюз489595 0.0 1022151
06:00+8з489631 0.0 1022165
09:00+11сз410892 0.0 1023356
12:00+15сз57660 0.0 1025782
15:00+15сз56570 0.0 1025945
18:00+11сз34760 0.0 102746
21:00+9ссз33860 0.0 102844
8 октября, сб
сб800:00+8ссз11900 0.0 102910
03:00+7ююз11890 0.0 102810
06:00+7ююз11890 0.0 102810
09:00+9ююз23814 0.0 1028147
12:00+14ююз34625 0.0 1026589
15:00+15ююз45555 0.0 1024821
18:00+11ю337358 0.0 102428
21:00+9ююз348021 0.0 102359